Time,TemperatureF,DewpointF,PressureIn,WindDirection,WindDirectionDegrees,WindSpeedMPH,WindSpeedGustMPH,Humidity,HourlyPrecipIn,Conditions,Clouds,dailyrainin,SoftwareType,DateUTC
2013-02-17 00:00:00,26.4,11.6,29.76,North,0,0.0,0.0,53,0.00,CLR,CLR,0.00,WeatherDisplay:10.37,2013-02-17 05:00:00,
2013-02-17 00:02:00,26.2,11.0,29.76,North,0,4.2,4.6,52,0.00,CLR,CLR,0.00,WeatherDisplay:10.37,2013-02-17 05:02:00,
2013-02-17 00:03:00,26.2,11.0,29.76,North,0,5.2,5.2,52,0.00,CLR,CLR,0.00,WeatherDisplay:10.37,2013-02-17 05:03:00,
2013-02-17 00:08:00,26.4,11.2,29.76,NNE,22,3.5,3.5,52,0.00,CLR,CLR,0.00,WeatherDisplay:10.37,2013-02-17 05:08:00,
2013-02-17 00:13:00,26.4,11.6,29.76,NNE,22,2.2,2.3,53,0.00,CLR,CLR,0.00,WeatherDisplay:10.37,2013-02-17 05:13:00,
2013-02-17 00:18:00,26.2,11.0,29.76,NNE,22,0.8,1.2,52,0.00,CLR,CLR,0.00,WeatherDisplay:10.37,2013-02-17 05:18:00,
2013-02-17 00:23:00,26.2,11.0,29.76,North,0,0.0,0.0,52,0.00,CLR,CLR,0.00,WeatherDisplay:10.37,2013-02-17 05:23:00,
2013-02-17 00:28:00,25.9,10.6,29.76,North,0,5.8,5.8,52,0.00,CLR,CLR,0.00,WeatherDisplay:10.37,2013-02-17 05:28:00,
2013-02-17 00:33:00,26.2,11.0,29.76,NNE,22,1.5,1.5,52,0.00,CLR,CLR,0.00,WeatherDisplay:10.37,2013-02-17 05:33:00,
2013-02-17 00:38:00,25.9,10.2,29.76,North,0,2.2,2.3,51,0.00,CLR,CLR,0.00,WeatherDisplay:10.37,2013-02-17 05:38:00,
2013-02-17 00:43:00,26.2,11.0,29.76,NNE,22,0.0,0.0,52,0.00,CLR,CLR,0.00,WeatherDisplay:10.37,2013-02-17 05:43:00,
2013-02-17 00:48:00,26.2,11.0,29.76,WNW,292,0.0,0.0,52,0.00,CLR,CLR,0.00,WeatherDisplay:10.37,2013-02-17 05:48:00,
2013-02-17 00:53:00,26.1,10.8,29.76,North,0,4.0,4.0,52,0.00,CLR,CLR,0.00,WeatherDisplay:10.37,2013-02-17 05:53:00,
2013-02-17 00:58:00,26.2,11.0,29.76,North,0,4.6,4.6,52,0.00,CLR,CLR,0.00,WeatherDisplay:10.37,2013-02-17 05:58:00,
2013-02-17 01:03:00,26.2,11.0,29.76,North,0,0.0,1.2,52,0.00,CLR,CLR,0.00,WeatherDisplay:10.37,2013-02-17 06:03:00,
2013-02-17 01:08:00,25.9,10.6,29.76,NNW,338,0.0,0.0,52,0.00,CLR,CLR,0.00,WeatherDisplay:10.37,2013-02-17 06:08:00,
2013-02-17 01:13:00,25.9,10.6,29.77,North,0,0.0,0.0,52,0.00,CLR,CLR,0.00,WeatherDisplay:10.37,2013-02-17 06:13:00,
2013-02-17 01:18:00,25.5,10.7,29.77,NNW,338,1.3,1.3,53,0.00,CLR,CLR,0.00,WeatherDisplay:10.37,2013-02-17 06:18:00,
2013-02-17 01:24:00,25.3,10.6,29.77,North,0,0.0,0.0,53,0.00,CLR,CLR,0.00,WeatherDisplay:10.37,2013-02-17 06:24:00,
2013-02-17 01:29:00,25.3,10.6,29.77,NE,45,0.0,0.0,53,0.00,CLR,CLR,0.00,WeatherDisplay:10.37,2013-02-17 06:29:00,
2013-02-17 01:34:00,25.3,10.6,29.77,NNE,22,4.9,4.9,53,0.00,CLR,CLR,0.00,WeatherDisplay:10.37,2013-02-17 06:34:00,
2013-02-17 01:39:00,25.3,10.6,29.77,NNE,22,0.0,0.0,53,0.00,CLR,CLR,0.00,WeatherDisplay:10.37,2013-02-17 06:39:00,
2013-02-17 01:44:00,25.2,10.4,29.77,North,0,0.0,0.0,53,0.00,CLR,CLR,0.00,WeatherDisplay:10.37,2013-02-17 06:44:00,
2013-02-17 01:49:00,25.3,9.7,29.77,NNE,22,2.2,2.3,51,0.00,CLR,CLR,0.00,WeatherDisplay:10.37,2013-02-17 06:49:00,
2013-02-17 01:55:00,25.2,10.0,29.77,NNE,22,6.1,6.1,52,0.00,CLR,CLR,0.00,WeatherDisplay:10.37,2013-02-17 06:55:00,
2013-02-17 02:00:00,25.0,11.1,29.78,NNE,22,7.9,8.1,55,0.00,CLR,CLR,0.00,WeatherDisplay:10.37,2013-02-17 07:00:00,
2013-02-17 02:05:00,24.6,11.5,29.78,NNW,338,3.5,5.8,57,0.00,CLR,CLR,0.00,WeatherDisplay:10.37,2013-02-17 07:05:00,
2013-02-17 02:10:00,24.3,12.4,29.78,NNE,22,1.3,1.3,60,0.00,CLR,CLR,0.00,WeatherDisplay:10.37,2013-02-17 07:10:00,
2013-02-17 02:15:00,23.9,12.8,29.78,NNE,22,8.1,8.1,62,0.00,CLR,CLR,0.00,WeatherDisplay:10.37,2013-02-17 07:15:00,
2013-02-17 02:20:00,24.1,12.9,29.78,NNE,22,5.8,5.8,62,0.00,CLR,CLR,0.00,WeatherDisplay:10.37,2013-02-17 07:20:00,
2013-02-17 02:25:00,23.7,13.0,29.78,NNW,338,7.2,7.2,63,0.00,CLR,CLR,0.00,WeatherDisplay:10.37,2013-02-17 07:25:00,
2013-02-17 02:30:00,23.5,13.1,29.77,NNE,22,5.2,5.8,64,0.00,CLR,CLR,0.00,WeatherDisplay:10.37,2013-02-17 07:30:00,
2013-02-17 02:36:00,23.7,13.3,29.77,NNE,22,4.0,4.0,64,0.00,CLR,CLR,0.00,WeatherDisplay:10.37,2013-02-17 07:36:00,
2013-02-17 02:41:00,23.7,13.7,29.78,East,90,7.0,7.0,65,0.00,CLR,CLR,0.00,WeatherDisplay:10.37,2013-02-17 07:41:00,
2013-02-17 02:46:00,23.7,13.7,29.79,NNE,22,3.8,3.8,65,0.00,CLR,CLR,0.00,WeatherDisplay:10.37,2013-02-17 07:46:00,
2013-02-17 02:51:00,24.1,14.0,29.78,North,0,0.0,0.0,65,0.00,CLR,CLR,0.00,WeatherDisplay:10.37,2013-02-17 07:51:00,
2013-02-17 02:56:00,23.7,13.7,29.79,NNE,22,4.4,4.6,65,0.00,CLR,CLR,0.00,WeatherDisplay:10.37,2013-02-17 07:56:00,
2013-02-17 03:01:00,23.7,13.7,29.78,NNE,22,4.4,4.6,65,0.00,CLR,CLR,0.00,WeatherDisplay:10.37,2013-02-17 08:01:00,
2013-02-17 03:07:00,23.7,13.7,29.78,NNE,22,4.4,4.6,65,0.00,CLR,CLR,0.00,WeatherDisplay:10.37,2013-02-17 08:07:00,
2013-02-17 03:12:00,23.2,13.1,29.78,NE,45,4.0,4.0,65,0.00,CLR,CLR,0.00,WeatherDisplay:10.37,2013-02-17 08:12:00,
2013-02-17 03:17:00,23.4,13.0,29.78,North,0,4.9,4.9,64,0.00,CLR,CLR,0.00,WeatherDisplay:10.37,2013-02-17 08:17:00,
2013-02-17 03:22:00,23.4,13.0,29.78,NNE,22,0.0,0.0,64,0.00,CLR,CLR,0.00,WeatherDisplay:10.37,2013-02-17 08:22:00,
2013-02-17 03:27:00,23.2,12.4,29.78,NNW,338,0.0,0.0,63,0.00,CLR,CLR,0.00,WeatherDisplay:10.37,2013-02-17 08:27:00,
2013-02-17 03:32:00,23.2,12.1,29.78,North,0,2.4,2.4,62,0.00,CLR,CLR,0.00,WeatherDisplay:10.37,2013-02-17 08:32:00,
2013-02-17 03:37:00,23.2,11.3,29.78,WNW,292,2.2,2.3,60,0.00,CLR,CLR,0.00,WeatherDisplay:10.37,2013-02-17 08:37:00,
2013-02-17 03:42:00,22.8,11.0,29.78,NNW,338,0.0,0.0,60,0.00,CLR,CLR,0.00,WeatherDisplay:10.37,2013-02-17 08:42:00,
2013-02-17 03:48:00,22.8,10.6,29.79,NW,315,0.0,0.0,59,0.00,CLR,CLR,0.00,WeatherDisplay:10.37,2013-02-17 08:48:00,
2013-02-17 03:53:00,22.6,9.3,29.79,North,0,6.8,6.9,56,0.00,CLR,CLR,0.00,WeatherDisplay:10.37,2013-02-17 08:53:00,
2013-02-17 03:58:00,23.2,9.8,29.79,North,0,0.0,0.0,56,0.00,CLR,CLR,0.00,WeatherDisplay:10.37,2013-02-17 08:58:00,
2013-02-17 04:03:00,23.2,9.8,29.79,North,0,0.0,0.0,56,0.00,CLR,CLR,0.00,WeatherDisplay:10.37,2013-02-17 09:03:00,
2013-02-17 04:08:00,23.2,9.8,29.79,North,0,0.0,0.0,56,0.00,CLR,CLR,0.00,WeatherDisplay:10.37,2013-02-17 09:08:00,
2013-02-17 04:13:00,23.4,7.9,29.79,North,0,4.6,4.6,51,0.00,CLR,CLR,0.00,WeatherDisplay:10.37,2013-02-17 09:13:00,
2013-02-17 04:18:00,23.2,7.7,29.79,NW,315,4.6,4.6,51,0.00,CLR,CLR,0.00,WeatherDisplay:10.37,2013-02-17 09:18:00,
2013-02-17 04:23:00,23.2,6.8,29.78,NNE,22,6.5,6.9,49,0.00,CLR,CLR,0.00,WeatherDisplay:10.37,2013-02-17 09:23:00,
2013-02-17 04:28:00,23.5,7.2,29.79,North,0,3.5,3.5,49,0.00,CLR,CLR,0.00,WeatherDisplay:10.37,2013-02-17 09:28:00,
2013-02-17 04:33:00,23.5,7.6,29.79,NW,315,0.0,0.0,50,0.00,CLR,CLR,0.00,WeatherDisplay:10.37,2013-02-17 09:33:00,
2013-02-17 04:39:00,22.8,7.4,29.79,NNW,338,0.6,1.2,51,0.00,CLR,CLR,0.00,WeatherDisplay:10.37,2013-02-17 09:39:00,
2013-02-17 04:44:00,23.2,6.8,29.79,WNW,292,6.5,6.9,49,0.00,CLR,CLR,0.00,WeatherDisplay:10.37,2013-02-17 09:44:00,
2013-02-17 04:49:00,23.2,6.8,29.79,NNE,22,8.1,8.1,49,0.00,CLR,CLR,0.00,WeatherDisplay:10.37,2013-02-17 09:49:00,
2013-02-17 04:54:00,23.5,7.2,29.80,NNW,338,7.9,8.1,49,0.00,CLR,CLR,0.00,WeatherDisplay:10.37,2013-02-17 09:54:00,
2013-02-17 04:59:00,23.5,7.6,29.80,North,0,9.0,9.2,50,0.00,CLR,CLR,0.00,WeatherDisplay:10.37,2013-02-17 09:59:00,
2013-02-17 05:05:00,23.5,7.6,29.80,North,0,9.0,9.2,50,0.00,CLR,CLR,0.00,WeatherDisplay:10.37,2013-02-17 10:05:00,
2013-02-17 05:10:00,23.2,7.7,29.81,NNE,22,0.0,0.0,51,0.00,CLR,CLR,0.00,WeatherDisplay:10.37,2013-02-17 10:10:00,
2013-02-17 05:15:00,22.8,7.4,29.81,NNE,22,5.2,5.8,51,0.00,CLR,CLR,0.00,WeatherDisplay:10.37,2013-02-17 10:15:00,
2013-02-17 05:20:00,23.2,9.4,29.82,NE,45,7.4,7.4,55,0.00,CLR,CLR,0.00,WeatherDisplay:10.37,2013-02-17 10:20:00,
2013-02-17 05:25:00,22.6,10.1,29.82,NE,45,6.5,6.9,58,0.00,CLR,CLR,0.00,WeatherDisplay:10.37,2013-02-17 10:25:00,
2013-02-17 05:30:00,22.3,10.9,29.83,NW,315,8.3,8.3,61,0.00,CLR,CLR,0.00,WeatherDisplay:10.37,2013-02-17 10:30:00,
2013-02-17 05:35:00,22.3,10.9,29.82,NNE,22,4.6,4.6,61,0.00,CLR,CLR,0.00,WeatherDisplay:10.37,2013-02-17 10:35:00,
2013-02-17 05:40:00,21.7,8.4,29.83,North,0,9.4,9.4,56,0.00,CLR,CLR,0.00,WeatherDisplay:10.37,2013-02-17 10:40:00,
2013-02-17 05:45:00,21.7,7.2,29.83,NNE,22,7.2,7.2,53,0.00,CLR,CLR,0.00,WeatherDisplay:10.37,2013-02-17 10:45:00,
2013-02-17 05:50:00,21.7,7.2,29.83,WNW,292,8.6,8.6,53,0.00,CLR,CLR,0.00,WeatherDisplay:10.37,2013-02-17 10:50:00,
2013-02-17 05:55:00,21.6,6.6,29.84,NW,315,0.0,0.0,52,0.00,CLR,CLR,0.00,WeatherDisplay:10.37,2013-02-17 10:55:00,
2013-02-17 06:00:00,21.7,7.2,29.84,North,0,0.0,0.0,53,0.00,CLR,CLR,0.00,WeatherDisplay:10.37,2013-02-17 11:00:00,
2013-02-17 06:06:00,21.7,7.2,29.84,North,0,0.0,0.0,53,0.00,CLR,CLR,0.00,WeatherDisplay:10.37,2013-02-17 11:06:00,
2013-02-17 06:11:00,21.4,6.9,29.84,NE,45,4.4,4.6,53,0.00,CLR,CLR,0.00,WeatherDisplay:10.37,2013-02-17 11:11:00,
2013-02-17 06:16:00,21.2,6.3,29.84,North,0,0.0,0.0,52,0.00,CLR,CLR,0.00,WeatherDisplay:10.37,2013-02-17 11:16:00,
2013-02-17 06:21:00,20.8,5.5,29.84,NNW,338,4.2,4.6,51,0.00,CLR,CLR,0.00,WeatherDisplay:10.37,2013-02-17 11:21:00,
2013-02-17 06:26:00,20.8,5.5,29.84,NNE,22,0.0,0.0,51,0.00,CLR,CLR,0.00,WeatherDisplay:10.37,2013-02-17 11:26:00,
2013-02-17 06:31:00,20.8,4.2,29.85,NNE,22,5.2,5.8,48,0.00,CLR,CLR,0.00,WeatherDisplay:10.37,2013-02-17 11:31:00,
2013-02-17 06:36:00,21.0,4.4,29.85,North,0,6.8,6.8,48,0.00,CLR,CLR,0.00,WeatherDisplay:10.37,2013-02-17 11:36:00,
2013-02-17 06:42:00,20.8,3.7,29.85,NNE,22,4.9,4.9,47,0.00,CLR,CLR,0.00,WeatherDisplay:10.37,2013-02-17 11:42:00,
2013-02-17 06:47:00,21.0,3.9,29.85,NNE,22,3.8,3.8,47,0.00,CLR,CLR,0.00,WeatherDisplay:10.37,2013-02-17 11:47:00,
2013-02-17 06:52:00,21.6,4.4,29.85,NNE,22,0.0,0.0,47,0.00,CLR,CLR,0.00,WeatherDisplay:10.37,2013-02-17 11:52:00,
2013-02-17 06:57:00,21.0,3.4,29.85,North,0,3.1,3.5,46,0.00,CLR,CLR,0.00,WeatherDisplay:10.37,2013-02-17 11:57:00,
2013-02-17 07:02:00,21.6,4.4,29.85,NNE,22,0.0,0.0,47,0.00,CLR,CLR,0.00,WeatherDisplay:10.37,2013-02-17 12:02:00,
2013-02-17 07:07:00,21.4,4.2,29.86,NE,45,2.9,3.5,47,0.00,CLR,CLR,0.00,WeatherDisplay:10.37,2013-02-17 12:07:00,
2013-02-17 07:12:00,21.4,4.7,29.85,North,0,3.3,3.5,48,0.00,CLR,CLR,0.00,WeatherDisplay:10.37,2013-02-17 12:12:00,
2013-02-17 07:17:00,20.8,4.2,29.85,NNE,22,0.2,0.0,48,0.00,CLR,CLR,0.00,WeatherDisplay:10.37,2013-02-17 12:17:00,
2013-02-17 07:22:00,21.4,4.2,29.85,WNW,292,0.8,1.2,47,0.00,CLR,CLR,0.00,WeatherDisplay:10.37,2013-02-17 12:22:00,
2013-02-17 07:27:00,21.6,4.4,29.85,NNE,22,0.0,0.0,47,0.00,CLR,CLR,0.00,WeatherDisplay:10.37,2013-02-17 12:27:00,
2013-02-17 07:32:00,21.4,4.2,29.85,NNE,22,1.5,1.5,47,0.00,CLR,CLR,0.00,WeatherDisplay:10.37,2013-02-17 12:32:00,
2013-02-17 07:38:00,21.7,5.5,29.85,NE,45,0.0,0.0,49,0.00,CLR,CLR,0.00,WeatherDisplay:10.37,2013-02-17 12:38:00,
2013-02-17 07:43:00,21.7,5.5,29.85,NW,315,0.0,0.0,49,0.00,CLR,CLR,0.00,WeatherDisplay:10.37,2013-02-17 12:43:00,
2013-02-17 07:48:00,21.7,5.0,29.85,NE,45,1.7,1.7,48,0.00,CLR,CLR,0.00,WeatherDisplay:10.37,2013-02-17 12:48:00,
2013-02-17 07:53:00,21.9,5.7,29.86,NNE,22,3.3,3.5,49,0.00,CLR,CLR,0.00,WeatherDisplay:10.37,2013-02-17 12:53:00,
2013-02-17 07:58:00,21.9,5.2,29.86,NNE,22,0.0,0.0,48,0.00,CLR,CLR,0.00,WeatherDisplay:10.37,2013-02-17 12:58:00,
2013-02-17 08:03:00,21.7,5.0,29.87,NNE,22,5.2,5.8,48,0.00,CLR,CLR,0.00,WeatherDisplay:10.37,2013-02-17 13:03:00,
2013-02-17 08:08:00,22.3,6.0,29.87,NNE,22,0.0,0.0,49,0.00,CLR,CLR,0.00,WeatherDisplay:10.37,2013-02-17 13:08:00,
2013-02-17 08:13:00,22.1,5.4,29.87,West,270,2.0,2.3,48,0.00,CLR,CLR,0.00,WeatherDisplay:10.37,2013-02-17 13:13:00,
2013-02-17 08:18:00,22.8,6.5,29.87,West,270,0.0,0.0,49,0.00,CLR,CLR,0.00,WeatherDisplay:10.37,2013-02-17 13:18:00,
2013-02-17 08:23:00,22.8,6.9,29.87,WSW,248,0.0,0.0,50,0.00,CLR,CLR,0.00,WeatherDisplay:10.37,2013-02-17 13:23:00,
2013-02-17 08:28:00,23.2,6.8,29.87,NNE,22,0.0,0.0,49,0.00,CLR,CLR,0.00,WeatherDisplay:10.37,2013-02-17 13:28:00,
2013-02-17 08:33:00,23.5,7.6,29.88,WNW,292,0.0,0.0,50,0.00,CLR,CLR,0.00,WeatherDisplay:10.37,2013-02-17 13:33:00,
2013-02-17 08:38:00,23.5,7.2,29.88,West,270,0.0,0.0,49,0.00,CLR,CLR,0.00,WeatherDisplay:10.37,2013-02-17 13:38:00,
2013-02-17 08:43:00,23.9,7.9,29.88,North,0,4.4,4.6,50,0.00,CLR,CLR,0.00,WeatherDisplay:10.37,2013-02-17 13:43:00,
2013-02-17 08:48:00,24.3,7.8,29.88,NNW,338,9.4,9.4,49,0.00,CLR,CLR,0.00,WeatherDisplay:10.37,2013-02-17 13:48:00,
2013-02-17 08:54:00,24.4,7.5,29.89,North,0,2.9,3.5,48,0.00,CLR,CLR,0.00,WeatherDisplay:10.37,2013-02-17 13:54:00,
2013-02-17 08:59:00,24.6,6.8,29.88,North,0,3.8,3.8,46,0.00,CLR,CLR,0.00,WeatherDisplay:10.37,2013-02-17 13:59:00,
2013-02-17 09:04:00,24.6,7.7,29.89,North,0,0.8,1.2,48,0.00,CLR,CLR,0.00,WeatherDisplay:10.37,2013-02-17 14:04:00,
2013-02-17 09:09:00,25.3,7.9,29.89,NNW,338,7.2,7.2,47,0.00,CLR,CLR,0.00,WeatherDisplay:10.37,2013-02-17 14:09:00,
2013-02-17 09:14:00,25.5,8.1,29.89,West,270,2.6,2.6,47,0.00,CLR,CLR,0.00,WeatherDisplay:10.37,2013-02-17 14:14:00,
2013-02-17 09:19:00,25.5,7.6,29.89,NNW,338,4.9,4.9,46,0.00,CLR,CLR,0.00,WeatherDisplay:10.37,2013-02-17 14:19:00,
2013-02-17 09:24:00,25.5,8.1,29.89,WNW,292,0.0,0.0,47,0.00,CLR,CLR,0.00,WeatherDisplay:10.37,2013-02-17 14:24:00,
2013-02-17 09:30:00,25.9,7.4,29.89,NNE,22,5.2,5.2,45,0.00,CLR,CLR,0.00,WeatherDisplay:10.37,2013-02-17 14:30:00,
2013-02-17 09:35:00,25.9,7.4,29.89,North,0,4.9,8.1,45,0.00,CLR,CLR,0.00,WeatherDisplay:10.37,2013-02-17 14:35:00,
2013-02-17 09:40:00,25.9,7.4,29.89,NNE,22,3.1,3.5,45,0.00,CLR,CLR,0.00,WeatherDisplay:10.37,2013-02-17 14:40:00,
2013-02-17 09:45:00,26.8,7.8,29.89,NNE,22,4.4,4.6,44,0.00,CLR,CLR,0.00,WeatherDisplay:10.37,2013-02-17 14:45:00,
2013-02-17 09:50:00,26.8,8.2,29.89,NNW,338,7.7,8.1,45,0.00,CLR,CLR,0.00,WeatherDisplay:10.37,2013-02-17 14:50:00,
2013-02-17 09:55:00,27.0,7.9,29.89,NNW,338,2.0,2.3,44,0.00,CLR,CLR,0.00,WeatherDisplay:10.37,2013-02-17 14:55:00,
2013-02-17 10:00:00,26.8,6.7,29.89,North,0,9.9,10.4,42,0.00,CLR,CLR,0.00,WeatherDisplay:10.37,2013-02-17 15:00:00,
2013-02-17 10:05:00,26.8,6.2,29.89,NNE,22,9.9,10.4,41,0.00,CLR,CLR,0.00,WeatherDisplay:10.37,2013-02-17 15:05:00,
2013-02-17 10:10:00,27.0,6.4,29.89,NNE,22,9.4,9.4,41,0.00,CLR,CLR,0.00,WeatherDisplay:10.37,2013-02-17 15:10:00,
2013-02-17 10:15:00,27.1,6.5,29.90,NNW,338,2.9,4.6,41,0.00,CLR,CLR,0.00,WeatherDisplay:10.37,2013-02-17 15:15:00,
2013-02-17 10:20:00,28.0,6.8,29.90,North,0,8.3,11.5,40,0.00,CLR,CLR,0.00,WeatherDisplay:10.37,2013-02-17 15:20:00,
2013-02-17 10:25:00,27.7,6.5,29.90,NNE,22,0.8,5.8,40,0.00,CLR,CLR,0.00,WeatherDisplay:10.37,2013-02-17 15:25:00,
2013-02-17 10:30:00,27.7,5.9,29.89,ENE,68,6.1,9.2,39,0.00,CLR,CLR,0.00,WeatherDisplay:10.37,2013-02-17 15:30:00,
2013-02-17 10:35:00,28.0,5.7,29.90,NW,315,11.8,11.8,38,0.00,CLR,CLR,0.00,WeatherDisplay:10.37,2013-02-17 15:35:00,
2013-02-17 10:41:00,27.9,6.6,29.90,North,0,7.4,9.2,40,0.00,CLR,CLR,0.00,WeatherDisplay:10.37,2013-02-17 15:41:00,
2013-02-17 10:46:00,27.7,5.9,29.90,North,0,8.8,9.2,39,0.00,CLR,CLR,0.00,WeatherDisplay:10.37,2013-02-17 15:46:00,
2013-02-17 10:51:00,27.7,5.9,29.90,NNW,338,13.4,13.8,39,0.00,CLR,CLR,0.00,WeatherDisplay:10.37,2013-02-17 15:51:00,
2013-02-17 10:56:00,28.0,6.2,29.90,North,0,8.8,8.8,39,0.00,CLR,CLR,0.00,WeatherDisplay:10.37,2013-02-17 15:56:00,
2013-02-17 11:01:00,28.2,5.8,29.90,NE,45,11.6,11.6,38,0.00,CLR,CLR,0.00,WeatherDisplay:10.37,2013-02-17 16:01:00,
2013-02-17 11:06:00,28.6,6.1,29.90,North,0,11.6,11.6,38,0.00,CLR,CLR,0.00,WeatherDisplay:10.37,2013-02-17 16:06:00,
2013-02-17 11:12:00,28.9,6.5,29.90,North,0,10.7,10.7,38,0.00,CLR,CLR,0.00,WeatherDisplay:10.37,2013-02-17 16:12:00,
2013-02-17 11:17:00,29.1,7.2,29.90,WNW,292,6.5,9.2,39,0.00,CLR,CLR,0.00,WeatherDisplay:10.37,2013-02-17 16:17:00,
2013-02-17 11:22:00,29.5,7.5,29.90,West,270,6.1,6.1,39,0.00,CLR,CLR,0.00,WeatherDisplay:10.37,2013-02-17 16:22:00,
2013-02-17 11:27:00,29.8,7.3,29.90,North,0,7.4,7.4,38,0.00,CLR,CLR,0.00,WeatherDisplay:10.37,2013-02-17 16:27:00,
2013-02-17 11:32:00,29.8,7.3,29.90,NNE,22,5.3,5.8,38,0.00,CLR,CLR,0.00,WeatherDisplay:10.37,2013-02-17 16:32:00,
2013-02-17 11:37:00,30.9,7.7,29.90,NW,315,4.4,4.6,37,0.00,CLR,CLR,0.00,WeatherDisplay:10.37,2013-02-17 16:37:00,
2013-02-17 11:42:00,31.1,8.4,29.90,NNE,22,9.7,9.7,38,0.00,CLR,CLR,0.00,WeatherDisplay:10.37,2013-02-17 16:42:00,
2013-02-17 11:47:00,30.9,7.1,29.90,North,0,10.5,10.5,36,0.00,CLR,CLR,0.00,WeatherDisplay:10.37,2013-02-17 16:47:00,
2013-02-17 11:52:00,30.7,7.5,29.90,NE,45,5.2,5.8,37,0.00,CLR,CLR,0.00,WeatherDisplay:10.37,2013-02-17 16:52:00,
2013-02-17 11:57:00,30.4,6.6,29.90,NNE,22,8.6,8.6,36,0.00,CLR,CLR,0.00,WeatherDisplay:10.37,2013-02-17 16:57:00,
2013-02-17 12:03:00,30.4,7.2,29.90,NNW,338,5.2,5.2,37,0.00,CLR,CLR,0.00,WeatherDisplay:10.37,2013-02-17 17:03:00,
2013-02-17 12:08:00,31.3,8.6,29.89,NNE,22,0.0,0.0,38,0.00,CLR,CLR,0.00,WeatherDisplay:10.37,2013-02-17 17:08:00,
2013-02-17 12:13:00,31.8,8.5,29.90,North,0,8.6,8.6,37,0.00,CLR,CLR,0.00,WeatherDisplay:10.37,2013-02-17 17:13:00,
2013-02-17 12:18:00,31.5,6.9,29.90,NE,45,2.9,3.5,35,0.00,CLR,CLR,0.00,WeatherDisplay:10.37,2013-02-17 17:18:00,
2013-02-17 12:23:00,30.9,6.4,29.90,NNW,338,11.8,11.8,35,0.00,CLR,CLR,0.00,WeatherDisplay:10.37,2013-02-17 17:23:00,
2013-02-17 12:28:00,29.8,6.1,29.90,NNE,22,6.8,9.2,36,0.00,CLR,CLR,0.00,WeatherDisplay:10.37,2013-02-17 17:28:00,
2013-02-17 12:33:00,29.8,6.7,29.89,NNE,22,9.9,9.9,37,0.00,CLR,CLR,0.00,WeatherDisplay:10.37,2013-02-17 17:33:00,
2013-02-17 12:39:00,31.1,7.8,29.90,NNE,22,4.9,4.9,37,0.00,CLR,CLR,0.00,WeatherDisplay:10.37,2013-02-17 17:39:00,
2013-02-17 12:44:00,31.8,7.2,29.89,NNW,338,11.1,11.5,35,0.00,CLR,CLR,0.00,WeatherDisplay:10.37,2013-02-17 17:44:00,
2013-02-17 12:49:00,32.2,7.6,29.89,North,0,8.1,8.1,35,0.00,CLR,CLR,0.00,WeatherDisplay:10.37,2013-02-17 17:49:00,
2013-02-17 12:54:00,32.0,8.0,29.89,North,0,4.0,4.0,36,0.00,CLR,CLR,0.00,WeatherDisplay:10.37,2013-02-17 17:54:00,
2013-02-17 12:59:00,33.1,7.7,29.89,WNW,292,6.5,6.5,34,0.00,CLR,CLR,0.00,WeatherDisplay:10.37,2013-02-17 17:59:00,
2013-02-17 13:04:00,33.1,9.0,29.89,WNW,292,2.9,3.5,36,0.00,CLR,CLR,0.00,WeatherDisplay:10.37,2013-02-17 18:04:00,
2013-02-17 13:10:00,33.6,10.1,29.89,North,0,4.6,4.6,37,0.00,CLR,CLR,0.00,WeatherDisplay:10.37,2013-02-17 18:10:00,
2013-02-17 13:15:00,34.0,10.4,29.89,North,0,4.6,4.6,37,0.00,CLR,CLR,0.00,WeatherDisplay:10.37,2013-02-17 18:15:00,
2013-02-17 13:20:00,34.0,7.8,29.88,NNW,338,10.0,10.0,33,0.00,CLR,CLR,0.00,WeatherDisplay:10.37,2013-02-17 18:20:00,
2013-02-17 13:25:00,33.6,8.2,29.88,North,0,11.1,12.7,34,0.00,CLR,CLR,0.00,WeatherDisplay:10.37,2013-02-17 18:25:00,
2013-02-17 13:30:00,34.0,7.2,29.88,NNW,338,6.8,9.2,32,0.00,CLR,CLR,0.00,WeatherDisplay:10.37,2013-02-17 18:30:00,
2013-02-17 13:35:00,34.3,7.5,29.88,NNE,22,9.2,9.2,32,0.00,CLR,CLR,0.00,WeatherDisplay:10.37,2013-02-17 18:35:00,
2013-02-17 13:40:00,34.5,8.3,29.88,NNW,338,7.9,8.1,33,0.00,CLR,CLR,0.00,WeatherDisplay:10.37,2013-02-17 18:40:00,
2013-02-17 13:45:00,33.8,7.0,29.88,North,0,0.8,1.2,32,0.00,CLR,CLR,0.00,WeatherDisplay:10.37,2013-02-17 18:45:00,
2013-02-17 13:50:00,34.3,8.2,29.88,NNE,22,2.6,2.6,33,0.00,CLR,CLR,0.00,WeatherDisplay:10.37,2013-02-17 18:50:00,
2013-02-17 13:55:00,34.5,9.6,29.88,NNW,338,4.4,4.6,35,0.00,CLR,CLR,0.00,WeatherDisplay:10.37,2013-02-17 18:55:00,
2013-02-17 14:00:00,34.5,8.3,29.88,NNE,22,4.9,4.9,33,0.00,CLR,CLR,0.00,WeatherDisplay:10.37,2013-02-17 19:00:00,
2013-02-17 14:06:00,34.9,7.3,29.87,NNE,22,9.0,10.4,31,0.00,CLR,CLR,0.00,WeatherDisplay:10.37,2013-02-17 19:06:00,
2013-02-17 14:11:00,35.1,8.8,29.87,North,0,2.4,2.4,33,0.00,CLR,CLR,0.00,WeatherDisplay:10.37,2013-02-17 19:11:00,
2013-02-17 14:16:00,35.2,8.3,29.87,NNE,22,4.6,4.6,32,0.00,CLR,CLR,0.00,WeatherDisplay:10.37,2013-02-17 19:16:00,
2013-02-17 14:21:00,35.8,8.0,29.87,WNW,292,6.8,6.8,31,0.00,CLR,CLR,0.00,WeatherDisplay:10.37,2013-02-17 19:21:00,
2013-02-17 14:27:00,35.2,7.6,29.88,North,0,4.2,5.8,31,0.00,CLR,CLR,0.00,WeatherDisplay:10.37,2013-02-17 19:27:00,
2013-02-17 14:32:00,35.4,7.7,29.87,NNW,338,4.9,5.8,31,0.00,CLR,CLR,0.00,WeatherDisplay:10.37,2013-02-17 19:32:00,
2013-02-17 14:37:00,35.6,7.9,29.87,WNW,292,2.9,3.5,31,0.00,CLR,CLR,0.00,WeatherDisplay:10.37,2013-02-17 19:37:00,
2013-02-17 14:42:00,36.3,8.5,29.87,NE,45,3.3,3.5,31,0.00,CLR,CLR,0.00,WeatherDisplay:10.37,2013-02-17 19:42:00,
2013-02-17 14:47:00,36.3,8.5,29.87,NNW,338,4.0,4.0,31,0.00,CLR,CLR,0.00,WeatherDisplay:10.37,2013-02-17 19:47:00,
2013-02-17 14:52:00,36.7,8.8,29.88,NW,315,0.0,0.0,31,0.00,CLR,CLR,0.00,WeatherDisplay:10.37,2013-02-17 19:52:00,
2013-02-17 14:57:00,37.0,8.4,29.88,NNW,338,3.1,3.5,30,0.00,CLR,CLR,0.00,WeatherDisplay:10.37,2013-02-17 19:57:00,
2013-02-17 15:02:00,37.2,7.8,29.88,NNW,338,2.6,2.6,29,0.00,CLR,CLR,0.00,WeatherDisplay:10.37,2013-02-17 20:02:00,
2013-02-17 15:08:00,37.6,8.9,29.88,North,0,2.2,2.3,30,0.00,CLR,CLR,0.00,WeatherDisplay:10.37,2013-02-17 20:08:00,
2013-02-17 15:13:00,38.3,9.5,29.88,NNW,338,10.0,10.0,30,0.00,CLR,CLR,0.00,WeatherDisplay:10.37,2013-02-17 20:13:00,
2013-02-17 15:18:00,38.8,9.2,29.88,NE,45,5.3,5.8,29,0.00,CLR,CLR,0.00,WeatherDisplay:10.37,2013-02-17 20:18:00,
2013-02-17 15:23:00,39.4,9.7,29.88,North,0,3.3,3.5,29,0.00,CLR,CLR,0.00,WeatherDisplay:10.37,2013-02-17 20:23:00,
2013-02-17 15:28:00,39.6,12.1,29.88,WSW,248,6.1,6.1,32,0.00,CLR,CLR,0.00,WeatherDisplay:10.37,2013-02-17 20:28:00,
2013-02-17 15:34:00,40.1,9.6,29.88,North,0,0.0,0.0,28,0.00,CLR,CLR,0.00,WeatherDisplay:10.37,2013-02-17 20:34:00,
2013-02-17 15:39:00,39.7,9.2,29.88,North,0,7.2,7.2,28,0.00,CLR,CLR,0.00,WeatherDisplay:10.37,2013-02-17 20:39:00,
2013-02-17 15:44:00,39.2,9.6,29.89,NNE,22,3.3,3.5,29,0.00,CLR,CLR,0.00,WeatherDisplay:10.37,2013-02-17 20:44:00,
2013-02-17 15:49:00,39.4,8.9,29.89,NNW,338,0.0,0.0,28,0.00,CLR,CLR,0.00,WeatherDisplay:10.37,2013-02-17 20:49:00,
2013-02-17 15:54:00,39.6,10.6,29.89,WNW,292,0.8,1.2,30,0.00,CLR,CLR,0.00,WeatherDisplay:10.37,2013-02-17 20:54:00,
2013-02-17 15:59:00,40.1,11.1,29.89,WNW,292,2.9,3.5,30,0.00,CLR,CLR,0.00,WeatherDisplay:10.37,2013-02-17 20:59:00,
2013-02-17 16:04:00,40.6,10.0,29.89,NNE,22,4.9,4.9,28,0.00,CLR,CLR,0.00,WeatherDisplay:10.37,2013-02-17 21:04:00,
2013-02-17 16:09:00,41.5,10.0,29.89,NE,45,5.3,5.3,27,0.00,CLR,CLR,0.00,WeatherDisplay:10.37,2013-02-17 21:09:00,
2013-02-17 16:14:00,41.7,10.1,29.89,WNW,292,1.7,1.7,27,0.00,CLR,CLR,0.00,WeatherDisplay:10.37,2013-02-17 21:14:00,
2013-02-17 16:20:00,40.3,10.5,29.89,NNE,22,2.4,4.6,29,0.00,CLR,CLR,0.00,WeatherDisplay:10.37,2013-02-17 21:20:00,
2013-02-17 16:25:00,40.3,9.7,29.89,NW,315,2.6,2.6,28,0.00,CLR,CLR,0.00,WeatherDisplay:10.37,2013-02-17 21:25:00,
2013-02-17 16:30:00,39.2,9.6,29.89,WSW,248,4.9,4.9,29,0.00,CLR,CLR,0.00,WeatherDisplay:10.37,2013-02-17 21:30:00,
2013-02-17 16:35:00,40.1,11.1,29.89,WNW,292,4.9,4.9,30,0.00,CLR,CLR,0.00,WeatherDisplay:10.37,2013-02-17 21:35:00,
2013-02-17 16:40:00,39.9,9.4,29.90,NW,315,3.5,3.5,28,0.00,CLR,CLR,0.00,WeatherDisplay:10.37,2013-02-17 21:40:00,
2013-02-17 16:45:00,38.7,11.3,29.90,West,270,3.8,3.8,32,0.00,CLR,CLR,0.00,WeatherDisplay:10.37,2013-02-17 21:45:00,
2013-02-17 16:50:00,38.5,10.4,29.90,NNW,338,0.0,0.0,31,0.00,CLR,CLR,0.00,WeatherDisplay:10.37,2013-02-17 21:50:00,
2013-02-17 16:55:00,40.6,12.3,29.90,NW,315,0.0,0.0,31,0.00,CLR,CLR,0.00,WeatherDisplay:10.37,2013-02-17 21:55:00,
2013-02-17 17:00:00,41.7,13.3,29.90,West,270,2.6,2.6,31,0.00,CLR,CLR,0.00,WeatherDisplay:10.37,2013-02-17 22:00:00,
2013-02-17 17:05:00,40.1,10.3,29.91,WNW,292,0.0,0.0,29,0.00,CLR,CLR,0.00,WeatherDisplay:10.37,2013-02-17 22:05:00,
2013-02-17 17:10:00,39.0,10.9,29.91,SW,225,3.3,3.5,31,0.00,CLR,CLR,0.00,WeatherDisplay:10.37,2013-02-17 22:10:00,
2013-02-17 17:15:00,39.4,11.9,29.91,WSW,248,0.0,0.0,32,0.00,CLR,CLR,0.00,WeatherDisplay:10.37,2013-02-17 22:15:00,
2013-02-17 17:20:00,38.8,11.4,29.91,NW,315,5.8,5.8,32,0.00,CLR,CLR,0.00,WeatherDisplay:10.37,2013-02-17 22:20:00,
2013-02-17 17:25:00,38.1,10.1,29.92,WNW,292,2.2,2.3,31,0.00,CLR,CLR,0.00,WeatherDisplay:10.37,2013-02-17 22:25:00,
2013-02-17 17:30:00,37.8,9.8,29.92,North,0,5.8,5.8,31,0.00,CLR,CLR,0.00,WeatherDisplay:10.37,2013-02-17 22:30:00,
2013-02-17 17:35:00,36.5,9.4,29.92,North,0,7.7,8.1,32,0.00,CLR,CLR,0.00,WeatherDisplay:10.37,2013-02-17 22:35:00,
2013-02-17 17:40:00,36.1,9.8,29.92,West,270,3.1,5.8,33,0.00,CLR,CLR,0.00,WeatherDisplay:10.37,2013-02-17 22:40:00,
2013-02-17 17:45:00,35.2,9.0,29.93,NNW,338,4.0,5.8,33,0.00,CLR,CLR,0.00,WeatherDisplay:10.37,2013-02-17 22:45:00,
2013-02-17 17:51:00,34.5,9.0,29.92,NNW,338,5.3,5.3,34,0.00,CLR,CLR,0.00,WeatherDisplay:10.37,2013-02-17 22:51:00,
2013-02-17 17:56:00,34.5,9.0,29.93,NNW,338,3.5,3.5,34,0.00,CLR,CLR,0.00,WeatherDisplay:10.37,2013-02-17 22:56:00,
2013-02-17 18:01:00,33.4,8.0,29.93,NW,315,4.2,4.6,34,0.00,CLR,CLR,0.00,WeatherDisplay:10.37,2013-02-17 23:01:00,
2013-02-17 18:06:00,33.4,8.7,29.93,WNW,292,2.6,2.6,35,0.00,CLR,CLR,0.00,WeatherDisplay:10.37,2013-02-17 23:06:00,
2013-02-17 18:11:00,32.9,8.8,29.93,NNE,22,0.0,0.0,36,0.00,CLR,CLR,0.00,WeatherDisplay:10.37,2013-02-17 23:11:00,
2013-02-17 18:16:00,32.5,7.9,29.93,NNW,338,4.0,4.0,35,0.00,CLR,CLR,0.00,WeatherDisplay:10.37,2013-02-17 23:16:00,
2013-02-17 18:21:00,32.5,8.5,29.93,NNW,338,2.9,3.5,36,0.00,CLR,CLR,0.00,WeatherDisplay:10.37,2013-02-17 23:21:00,
2013-02-17 18:26:00,32.2,8.2,29.94,WNW,292,0.0,0.0,36,0.00,CLR,CLR,0.00,WeatherDisplay:10.37,2013-02-17 23:26:00,
2013-02-17 18:31:00,31.8,8.5,29.94,WNW,292,0.0,0.0,37,0.00,CLR,CLR,0.00,WeatherDisplay:10.37,2013-02-17 23:31:00,
2013-02-17 18:36:00,31.6,8.3,29.94,North,0,1.3,1.3,37,0.00,CLR,CLR,0.00,WeatherDisplay:10.37,2013-02-17 23:36:00,
2013-02-17 18:41:00,31.3,8.6,29.95,WNW,292,3.5,3.5,38,0.00,CLR,CLR,0.00,WeatherDisplay:10.37,2013-02-17 23:41:00,
2013-02-17 18:46:00,30.9,8.2,29.95,NE,45,0.0,0.0,38,0.00,CLR,CLR,0.00,WeatherDisplay:10.37,2013-02-17 23:46:00,
2013-02-17 18:52:00,30.9,8.2,29.95,West,270,3.1,0.0,38,0.00,CLR,CLR,0.00,WeatherDisplay:10.37,2013-02-17 23:52:00,
2013-02-17 18:57:00,30.7,8.1,29.95,NNW,338,0.0,0.0,38,0.00,CLR,CLR,0.00,WeatherDisplay:10.37,2013-02-17 23:57:00,
2013-02-17 19:02:00,30.4,7.8,29.95,North,0,0.0,0.0,38,0.00,CLR,CLR,0.00,WeatherDisplay:10.37,2013-02-18 00:02:00,
2013-02-17 19:07:00,30.0,8.0,29.95,WNW,292,1.7,1.7,39,0.00,CLR,CLR,0.00,WeatherDisplay:10.37,2013-02-18 00:07:00,
2013-02-17 19:12:00,30.0,8.0,29.95,North,0,0.0,0.0,39,0.00,CLR,CLR,0.00,WeatherDisplay:10.37,2013-02-18 00:12:00,
2013-02-17 19:17:00,29.8,8.4,29.95,North,0,0.0,0.0,40,0.00,CLR,CLR,0.00,WeatherDisplay:10.37,2013-02-18 00:17:00,
2013-02-17 19:22:00,29.8,8.4,29.95,NNW,338,0.0,0.0,40,0.00,CLR,CLR,0.00,WeatherDisplay:10.37,2013-02-18 00:22:00,
2013-02-17 19:27:00,29.8,8.4,29.95,North,0,0.0,0.0,40,0.00,CLR,CLR,0.00,WeatherDisplay:10.37,2013-02-18 00:27:00,
2013-02-17 19:32:00,29.7,8.3,29.96,NNW,338,2.9,3.5,40,0.00,CLR,CLR,0.00,WeatherDisplay:10.37,2013-02-18 00:32:00,
2013-02-17 19:37:00,29.8,8.4,29.95,North,0,0.8,2.3,40,0.00,CLR,CLR,0.00,WeatherDisplay:10.37,2013-02-18 00:37:00,
2013-02-17 19:43:00,29.8,8.4,29.96,North,0,0.0,0.0,40,0.00,CLR,CLR,0.00,WeatherDisplay:10.37,2013-02-18 00:43:00,
2013-02-17 19:48:00,29.5,8.1,29.96,NW,315,0.0,0.0,40,0.00,CLR,CLR,0.00,WeatherDisplay:10.37,2013-02-18 00:48:00,
2013-02-17 19:53:00,29.1,7.8,29.96,NNW,338,0.0,0.0,40,0.00,CLR,CLR,0.00,WeatherDisplay:10.37,2013-02-18 00:53:00,
2013-02-17 19:58:00,28.9,8.1,29.97,NNW,338,0.0,0.0,41,0.00,CLR,CLR,0.00,WeatherDisplay:10.37,2013-02-18 00:58:00,
2013-02-17 20:03:00,28.6,8.4,29.97,West,270,0.0,0.0,42,0.00,CLR,CLR,0.00,WeatherDisplay:10.37,2013-02-18 01:03:00,
2013-02-17 20:08:00,28.4,7.7,29.97,WNW,292,0.0,0.0,41,0.00,CLR,CLR,0.00,WeatherDisplay:10.37,2013-02-18 01:08:00,
2013-02-17 20:13:00,28.8,8.0,29.97,West,270,0.0,0.0,41,0.00,CLR,CLR,0.00,WeatherDisplay:10.37,2013-02-18 01:13:00,
2013-02-17 20:18:00,28.8,8.0,29.97,WNW,292,0.0,0.0,41,0.00,CLR,CLR,0.00,WeatherDisplay:10.37,2013-02-18 01:18:00,
2013-02-17 20:23:00,28.8,8.5,29.97,NNW,338,0.6,1.2,42,0.00,CLR,CLR,0.00,WeatherDisplay:10.37,2013-02-18 01:23:00,
2013-02-17 20:28:00,28.6,8.4,29.97,NW,315,0.0,0.0,42,0.00,CLR,CLR,0.00,WeatherDisplay:10.37,2013-02-18 01:28:00,
2013-02-17 20:33:00,28.2,8.0,29.97,NW,315,0.0,0.0,42,0.00,CLR,CLR,0.00,WeatherDisplay:10.37,2013-02-18 01:33:00,
2013-02-17 20:39:00,28.0,7.9,29.97,NNW,338,0.0,0.0,42,0.00,CLR,CLR,0.00,WeatherDisplay:10.37,2013-02-18 01:39:00,
2013-02-17 20:44:00,27.9,8.2,29.97,West,270,0.0,0.0,43,0.00,CLR,CLR,0.00,WeatherDisplay:10.37,2013-02-18 01:44:00,
2013-02-17 20:49:00,27.9,8.2,29.97,WNW,292,0.0,0.0,43,0.00,CLR,CLR,0.00,WeatherDisplay:10.37,2013-02-18 01:49:00,
2013-02-17 20:54:00,28.0,8.4,29.97,WSW,248,0.0,0.0,43,0.00,CLR,CLR,0.00,WeatherDisplay:10.37,2013-02-18 01:54:00,
2013-02-17 20:59:00,28.2,8.0,29.98,WSW,248,0.0,0.0,42,0.00,CLR,CLR,0.00,WeatherDisplay:10.37,2013-02-18 01:59:00,
2013-02-17 21:04:00,28.2,8.0,29.98,WNW,292,0.0,0.0,42,0.00,CLR,CLR,0.00,WeatherDisplay:10.37,2013-02-18 02:04:00,
2013-02-17 21:09:00,28.2,8.0,29.98,WNW,292,0.0,0.0,42,0.00,CLR,CLR,0.00,WeatherDisplay:10.37,2013-02-18 02:09:00,
2013-02-17 21:15:00,28.2,8.0,29.98,WNW,292,0.0,0.0,42,0.00,CLR,CLR,0.00,WeatherDisplay:10.37,2013-02-18 02:15:00,
2013-02-17 21:20:00,28.6,8.4,29.98,West,270,0.0,0.0,42,0.00,CLR,CLR,0.00,WeatherDisplay:10.37,2013-02-18 02:20:00,
2013-02-17 21:25:00,28.6,8.4,29.98,West,270,0.0,0.0,42,0.00,CLR,CLR,0.00,WeatherDisplay:10.37,2013-02-18 02:25:00,
2013-02-17 21:30:00,28.6,8.4,29.99,West,270,0.0,0.0,42,0.00,CLR,CLR,0.00,WeatherDisplay:10.37,2013-02-18 02:30:00,
2013-02-17 21:35:00,28.8,8.0,29.99,WNW,292,0.0,0.0,41,0.00,CLR,CLR,0.00,WeatherDisplay:10.37,2013-02-18 02:35:00,
2013-02-17 21:40:00,28.9,8.7,29.99,NW,315,0.0,0.0,42,0.00,CLR,CLR,0.00,WeatherDisplay:10.37,2013-02-18 02:40:00,
2013-02-17 21:45:00,28.4,8.7,29.99,NW,315,0.0,0.0,43,0.00,CLR,CLR,0.00,WeatherDisplay:10.37,2013-02-18 02:45:00,
2013-02-17 21:50:00,28.0,8.4,29.99,WNW,292,0.0,0.0,43,0.00,CLR,CLR,0.00,WeatherDisplay:10.37,2013-02-18 02:50:00,
2013-02-17 21:55:00,27.5,7.9,29.99,NW,315,0.0,0.0,43,0.00,CLR,CLR,0.00,WeatherDisplay:10.37,2013-02-18 02:55:00,
2013-02-17 22:00:00,27.3,7.7,29.99,WNW,292,0.0,0.0,43,0.00,CLR,CLR,0.00,WeatherDisplay:10.37,2013-02-18 03:00:00,
2013-02-17 22:05:00,27.0,7.9,30.00,WSW,248,0.0,0.0,44,0.00,CLR,CLR,0.00,WeatherDisplay:10.37,2013-02-18 03:05:00,
2013-02-17 22:10:00,27.0,8.4,30.00,SW,225,0.0,0.0,45,0.00,CLR,CLR,0.00,WeatherDisplay:10.37,2013-02-18 03:10:00,
2013-02-17 22:16:00,27.1,8.6,29.99,ENE,68,0.0,0.0,45,0.00,CLR,CLR,0.00,WeatherDisplay:10.37,2013-02-18 03:16:00,
2013-02-17 22:21:00,27.0,8.4,30.00,SSE,158,0.0,0.0,45,0.00,CLR,CLR,0.00,WeatherDisplay:10.37,2013-02-18 03:21:00,
2013-02-17 22:26:00,27.0,8.4,30.00,WSW,248,0.0,0.0,45,0.00,CLR,CLR,0.00,WeatherDisplay:10.37,2013-02-18 03:26:00,
2013-02-17 22:31:00,27.3,8.2,30.00,SSE,158,0.0,0.0,44,0.00,CLR,CLR,0.00,WeatherDisplay:10.37,2013-02-18 03:31:00,
2013-02-17 22:36:00,27.3,8.2,30.00,South,180,0.0,0.0,44,0.00,CLR,CLR,0.00,WeatherDisplay:10.37,2013-02-18 03:36:00,
2013-02-17 22:41:00,27.3,8.7,30.00,SW,225,4.2,4.6,45,0.00,CLR,CLR,0.00,WeatherDisplay:10.37,2013-02-18 03:41:00,
2013-02-17 22:46:00,27.3,8.2,30.00,SW,225,0.0,0.0,44,0.00,CLR,CLR,0.00,WeatherDisplay:10.37,2013-02-18 03:46:00,
2013-02-17 22:52:00,27.3,8.7,30.00,WSW,248,0.0,0.0,45,0.00,CLR,CLR,0.00,WeatherDisplay:10.37,2013-02-18 03:52:00,
2013-02-17 22:57:00,27.3,8.7,30.01,WSW,248,0.0,0.0,45,0.00,CLR,CLR,0.00,WeatherDisplay:10.37,2013-02-18 03:57:00,
2013-02-17 23:02:00,27.1,8.1,30.00,West,270,0.0,0.0,44,0.00,CLR,CLR,0.00,WeatherDisplay:10.37,2013-02-18 04:02:00,
2013-02-17 23:07:00,27.3,8.7,30.00,West,270,0.0,0.0,45,0.00,CLR,CLR,0.00,WeatherDisplay:10.37,2013-02-18 04:07:00,
2013-02-17 23:12:00,27.1,9.1,30.00,NW,315,0.0,0.0,46,0.00,CLR,CLR,0.00,WeatherDisplay:10.37,2013-02-18 04:12:00,
2013-02-17 23:17:00,26.8,8.2,30.00,WSW,248,0.0,0.0,45,0.00,CLR,CLR,0.00,WeatherDisplay:10.37,2013-02-18 04:17:00,
2013-02-17 23:22:00,27.0,8.9,30.01,WNW,292,0.0,0.0,46,0.00,CLR,CLR,0.00,WeatherDisplay:10.37,2013-02-18 04:22:00,
2013-02-17 23:27:00,26.8,8.2,30.01,NW,315,0.0,0.0,45,0.00,CLR,CLR,0.00,WeatherDisplay:10.37,2013-02-18 04:27:00,
2013-02-17 23:32:00,27.0,8.4,30.00,NW,315,0.0,0.0,45,0.00,CLR,CLR,0.00,WeatherDisplay:10.37,2013-02-18 04:32:00,
2013-02-17 23:37:00,26.8,8.2,30.01,NW,315,0.0,0.0,45,0.00,CLR,CLR,0.00,WeatherDisplay:10.37,2013-02-18 04:37:00,
2013-02-17 23:42:00,26.4,8.4,30.01,South,180,0.0,0.0,46,0.00,CLR,CLR,0.00,WeatherDisplay:10.37,2013-02-18 04:42:00,
2013-02-17 23:47:00,26.1,8.6,30.01,SSE,158,0.0,0.0,47,0.00,CLR,CLR,0.00,WeatherDisplay:10.37,2013-02-18 04:47:00,
2013-02-17 23:53:00,25.7,8.2,30.02,South,180,0.0,0.0,47,0.00,CLR,CLR,0.00,WeatherDisplay:10.37,2013-02-18 04:53:00,
2013-02-17 23:58:00,25.5,8.1,30.02,SSE,158,0.0,0.0,47,0.00,CLR,CLR,0.00,WeatherDisplay:10.37,2013-02-18 04:58:00,